When you browse on this site, cookies collect data to enhance your experience and personalize the content and advertising you see.
Visit our Privacy Policy to learn more. By continuing to use the site, you agree to this use of cookies and data.
  • In Austria
  • List of Countries
  • For 7 days
  • Water Temperature
  • Satellite Maps
  • Weather Map
  • News
  • Weather Widgets
  • user-avatar
    Login

    Hourly Weather Rih

    Today, 19 May, Sunday

    Time Temperature Precipitation Wind Pressure Humidity
    00:00 +12°C° 0 mm 2 mps 745 mmHg 81%
    01:00 +12°C° 0 mm 2 mps 745 mmHg 81%
    02:00 +10°C° 0 mm 2 mps 745 mmHg 81%
    03:00 +12°C° 0 mm 2 mps 745 mmHg 82%
    04:00 +12°C° 0 mm 2 mps 745 mmHg 82%
    05:00 +12°C° 0 mm 2 mps 745 mmHg 82%
    06:00 +14°C° 0 mm 2 mps 745 mmHg 76%
    07:00 +16°C° 0 mm 2 mps 745 mmHg 71%
    08:00 +19°C° 0 mm 3 mps 746 mmHg 64%
    09:00 +20°C° 0 mm 3 mps 746 mmHg 59%
    10:00 +21°C° 0 mm 3 mps 746 mmHg 55%
    11:00 +22°C° 0 mm 3 mps 746 mmHg 50%
    12:00 +24°C° 0 mm 3 mps 746 mmHg 50%
    13:00 +24°C° 0 mm 3 mps 746 mmHg 50%
    14:00 +24°C° 0 mm 3 mps 746 mmHg 50%
    15:00 +24°C° 0 mm 3 mps 746 mmHg 54%
    16:00 +24°C° 0 mm 3 mps 746 mmHg 58%
    17:00 +22°C° 0 mm 3 mps 746 mmHg 62%
    18:00 +21°C° 0 mm 3 mps 746 mmHg 67%
    19:00 +19°C° 0 mm 3 mps 746 mmHg 72%
    20:00 +17°C° 0 mm 3 mps 746 mmHg 78%
    21:00 +16°C° 0 mm 3 mps 746 mmHg 79%
    22:00 +14°C° 0 mm 3 mps 747 mmHg 80%
    23:00 +13°C° 0 mm 4 mps 747 mmHg 81%

    Tomorrow, 20 May, Monday

    Time Temperature Precipitation Wind Pressure Humidity
    00:00 +13°C° 0 mm 3 mps 747 mmHg 81%
    01:00 +12°C° 0 mm 3 mps 748 mmHg 81%
    02:00 +12°C° 0 mm 3 mps 748 mmHg 80%
    03:00 +12°C° 0 mm 3 mps 748 mmHg 80%
    04:00 +11°C° 0 mm 3 mps 748 mmHg 80%
    05:00 +11°C° 0 mm 3 mps 748 mmHg 80%
    06:00 +13°C° 0 mm 4 mps 748 mmHg 73%
    07:00 +15°C° 0 mm 4 mps 749 mmHg 66%
    08:00 +17°C° 0 mm 5 mps 749 mmHg 58%
    09:00 +19°C° 0 mm 5 mps 749 mmHg 56%
    10:00 +20°C° 0 mm 5 mps 749 mmHg 54%
    11:00 +21°C° 0 mm 5 mps 749 mmHg 52%
    12:00 +21°C° 0 mm 5 mps 749 mmHg 52%
    13:00 +22°C° 0 mm 5 mps 749 mmHg 52%
    14:00 +22°C° 0 mm 5 mps 749 mmHg 52%
    15:00 +22°C° 0 mm 5 mps 748 mmHg 56%
    16:00 +21°C° 0 mm 4 mps 748 mmHg 59%
    17:00 +21°C° 0 mm 4 mps 748 mmHg 62%
    18:00 +19°C° 0 mm 4 mps 748 mmHg 68%
    19:00 +17°C° 0 mm 4 mps 748 mmHg 75%
    20:00 +14°C° 0 mm 3 mps 748 mmHg 81%
    21:00 +14°C° 0 mm 3 mps 748 mmHg 80%
    22:00 +13°C° 0 mm 4 mps 748 mmHg 80%
    23:00 +12°C° 0 mm 4 mps 748 mmHg 80%

    Day after tomorrow, 21 May, Tuesday

    Time Temperature Precipitation Wind Pressure Humidity
    00:00 +12°C° 0 mm 4 mps 748 mmHg 78%
    01:00 +12°C° 0 mm 4 mps 748 mmHg 77%
    02:00 +11°C° 0 mm 4 mps 748 mmHg 76%
    03:00 +11°C° 0 mm 4 mps 748 mmHg 75%
    04:00 +11°C° 0 mm 4 mps 748 mmHg 74%
    05:00 +10°C° 0 mm 5 mps 748 mmHg 73%
    06:00 +13°C° 0 mm 5 mps 748 mmHg 69%
    07:00 +14°C° 0 mm 5 mps 748 mmHg 65%
    08:00 +16°C° 0 mm 6 mps 748 mmHg 61%
    09:00 +17°C° 0 mm 6 mps 748 mmHg 60%
    10:00 +20°C° 0 mm 6 mps 748 mmHg 59%
    11:00 +21°C° 0 mm 6 mps 747 mmHg 57%
    12:00 +21°C° 0 mm 6 mps 747 mmHg 57%
    13:00 +22°C° 0 mm 6 mps 747 mmHg 57%
    14:00 +22°C° 0 mm 5 mps 746 mmHg 57%
    15:00 +22°C° 0 mm 5 mps 746 mmHg 60%
    16:00 +22°C° 0 mm 5 mps 745 mmHg 62%
    17:00 +22°C° 0 mm 4 mps 745 mmHg 65%
    18:00 +20°C° 0 mm 4 mps 745 mmHg 71%
    19:00 +18°C° 0 mm 4 mps 745 mmHg 78%
    20:00 +17°C° 0 mm 3 mps 744 mmHg 85%
    21:00 +17°C° 0 mm 4 mps 744 mmHg 83%
    22:00 +17°C° 0 mm 4 mps 744 mmHg 82%
    23:00 +15°C° 0 mm 4 mps 744 mmHg 81%

    22 May, Wednesday

    Time Temperature Precipitation Wind Pressure Humidity
    00:00 +15°C° 0 mm 4 mps 744 mmHg 81%
    01:00 +15°C° 0 mm 4 mps 743 mmHg 82%
    02:00 +14°C° 0 mm 3 mps 743 mmHg 82%
    03:00 +14°C° 0 mm 3 mps 743 mmHg 83%
    04:00 +14°C° 0 mm 3 mps 743 mmHg 85%
    05:00 +14°C° 0 mm 3 mps 743 mmHg 86%
    06:00 +16°C° 0 mm 3 mps 742 mmHg 82%
    07:00 +18°C° 0 mm 3 mps 742 mmHg 79%
    08:00 +19°C° 0 mm 3 mps 742 mmHg 75%
    09:00 +20°C° 0.5 mm 4 mps 742 mmHg 75%
    10:00 +20°C° 0.5 mm 4 mps 742 mmHg 75%
    11:00 +21°C° 0.5 mm 5 mps 742 mmHg 75%
    12:00 +21°C° 0.4 mm 5 mps 741 mmHg 72%
    13:00 +22°C° 0.4 mm 5 mps 741 mmHg 69%
    14:00 +22°C° 0.4 mm 5 mps 741 mmHg 66%
    15:00 +21°C° 0.2 mm 5 mps 741 mmHg 69%
    16:00 +21°C° 0.2 mm 5 mps 740 mmHg 73%
    17:00 +20°C° 0.2 mm 4 mps 740 mmHg 76%
    18:00 +19°C° 0.2 mm 4 mps 740 mmHg 82%
    19:00 +17°C° 0.2 mm 3 mps 740 mmHg 88%
    20:00 +16°C° 0.2 mm 3 mps 740 mmHg 94%
    21:00 +16°C° 0 mm 3 mps 740 mmHg 95%
    22:00 +16°C° 0 mm 3 mps 739 mmHg 95%
    23:00 +15°C° 0 mm 2 mps 739 mmHg 96%

    23 May, Thursday

    Time Temperature Precipitation Wind Pressure Humidity
    00:00 +15°C° 0.1 mm 2 mps 739 mmHg 96%
    01:00 +15°C° 0.1 mm 2 mps 739 mmHg 97%
    02:00 +15°C° 0.1 mm 2 mps 739 mmHg 97%
    03:00 +15°C° 0 mm 2 mps 739 mmHg 96%
    04:00 +15°C° 0 mm 2 mps 739 mmHg 96%
    05:00 +15°C° 0 mm 2 mps 739 mmHg 95%
    06:00 +16°C° 0 mm 2 mps 739 mmHg 90%
    07:00 +17°C° 0 mm 2 mps 739 mmHg 84%
    08:00 +19°C° 0 mm 2 mps 739 mmHg 79%
    09:00 +20°C° 0 mm 2 mps 738 mmHg 73%
    10:00 +21°C° 0 mm 2 mps 738 mmHg 68%
    11:00 +23°C° 0 mm 2 mps 738 mmHg 62%
    12:00 +23°C° 0 mm 2 mps 738 mmHg 61%
    13:00 +24°C° 0 mm 2 mps 738 mmHg 60%
    14:00 +24°C° 0 mm 2 mps 737 mmHg 58%
    15:00 +24°C° 0.4 mm 2 mps 737 mmHg 61%
    16:00 +24°C° 0.4 mm 2 mps 737 mmHg 64%
    17:00 +23°C° 0.4 mm 2 mps 737 mmHg 67%
    18:00 +21°C° 0.1 mm 2 mps 737 mmHg 72%
    19:00 +20°C° 0.1 mm 1 mps 737 mmHg 78%
    20:00 +16°C° 0.1 mm 0 mps 737 mmHg 83%
    21:00 +18°C° 0 mm 1 mps 737 mmHg 85%
    22:00 +16°C° 0 mm 1 mps 737 mmHg 87%
    23:00 +16°C° 0 mm 2 mps 737 mmHg 88%

    24 May, Friday

    Time Temperature Precipitation Wind Pressure Humidity
    00:00 +15°C° 0 mm 2 mps 737 mmHg 90%
    01:00 +15°C° 0 mm 1 mps 737 mmHg 92%
    02:00 +15°C° 0 mm 1 mps 737 mmHg 93%
    03:00 +15°C° 0 mm 1 mps 737 mmHg 94%
    04:00 +15°C° 0 mm 2 mps 737 mmHg 94%
    05:00 +15°C° 0 mm 2 mps 737 mmHg 94%
    06:00 +17°C° 0 mm 2 mps 737 mmHg 89%
    07:00 +19°C° 0 mm 2 mps 738 mmHg 83%
    08:00 +20°C° 0 mm 2 mps 738 mmHg 78%
    09:00 +21°C° 0 mm 3 mps 737 mmHg 73%
    10:00 +22°C° 0 mm 3 mps 737 mmHg 68%
    11:00 +24°C° 0 mm 3 mps 737 mmHg 63%
    12:00 +25°C° 0.2 mm 4 mps 737 mmHg 63%
    13:00 +25°C° 0.2 mm 4 mps 737 mmHg 64%
    14:00 +25°C° 0.2 mm 4 mps 736 mmHg 64%
    15:00 +23°C° 0.5 mm 4 mps 736 mmHg 68%
    16:00 +23°C° 0.5 mm 4 mps 736 mmHg 71%
    17:00 +22°C° 0.5 mm 4 mps 736 mmHg 75%
    18:00 +21°C° 0.4 mm 3 mps 735 mmHg 80%
    19:00 +19°C° 0.4 mm 3 mps 735 mmHg 85%
    20:00 +18°C° 0.4 mm 2 mps 735 mmHg 90%
    21:00 +17°C° 0.3 mm 2 mps 735 mmHg 92%
    22:00 +17°C° 0.3 mm 2 mps 735 mmHg 93%
    23:00 +16°C° 0.3 mm 3 mps 735 mmHg 94%
    Show more